Location: Cactus School
(34.5700°N, 118.0931°W)
Time: 07:13:29
(UTC-08:00)

A-11 Canister half - Pass Details

Date: 21 November 2019
Orbit: 1515 x 1685 km, 47.2° (Epoch: 08 December)

Event Time Altitude Azimuth Distance (km) Brightness Sun altitude
Rises 19:11:11 0° 278° (W) 4,903 12.8 -30.0°
Reaches altitude 10° 19:14:39 10° 285° (WNW) 3,930 11.9 -30.7°
Maximum altitude 19:24:03 41° 353° (N) 2,292 9.8 -32.6°
Enters shadow 19:26:19 37° 21° (NNE) 2,420 9.7 -33.1°
